Location: Basse Occidentale du Courleau
(48.3833°N, 4.8333°W)
Time: 09:36:43
(UTC+00:00)

Cosmos 1538 Rocket - Pass Details

Date: 05 July 2020
Orbit: 753 x 791 km, 74.0° (Epoch: 08 August)

Event Time Altitude Azimuth Distance (km) Brightness Sun altitude
Exits shadow 22:15:17 - 200° (SSW) 2,785 6.5 -13.3°
Reaches altitude 10° 22:16:25 10° 200° (SSW) 2,346 6.1 -13.4°
Maximum altitude 22:21:46 88° 115° (ESE) 793 4.0 -13.9°
Drops below altitude 10° 22:27:08 10° 23° (NNE) 2,344 7.1 -14.3°
Sets 22:29:31 0° 24° (NNE) 3,270 7.9 -14.5°
